#timestamp,LO_Frequency,Hit,StdDev 
1570896015.6,286047001.2,N
1570896035.5,286046998.1,N
1570896055.3,286046999.2,N
1570896075.1,286046998.4,N
1570896095.9,286046997.1,N
1570896115.7,286046997.8,N
1570896135.6,286046994.9,N
1570896155.4,286046995.6,N
1570896175.2,286046995.8,N
1570896195.1,286046997.2,N
1570896196.0,286046997.2,N
1570896215.8,286046993.3,Y
1570896235.7,286046997.9,P
1570896255.5,286046997.6,P
1570896275.3,286046996.7,P
1570896295.2,286046998.0,N
1570896315.9,286046998.5,N
1570896335.7,286047000.1,N
1570896355.6,286047000.5,N
1570896375.4,286046998.2,N
1570896395.3,286046998.5,N
1570896415.1,286046999.5,N
1570896416.0,286046999.5,N
1570896435.8,286046999.0,N
1570896455.7,286046998.0,N
1570896475.5,286046997.2,N
1570896495.3,286046995.0,Y
1570896515.2,286046999.7,P
1570896535.0,286047002.6,P
1570896535.9,286047002.6,N
1570896555.8,286047002.4,N
1570896575.6,286047002.2,N
1570896595.4,286047000.9,N
1570896615.3,286046999.3,N
1570896635.1,286046996.7,N
1570896655.8,286046997.8,N
1570896675.7,286046997.9,N
1570896695.5,286046995.2,N
1570896715.4,286046995.6,N
1570896735.2,286046995.3,N
1570896755.0,286046996.0,N
1570896755.9,286046996.0,N
1570896775.8,286046995.2,N
1570896795.6,286046997.8,N
1570896845.5,286046997.7,E
1570896855.4,286046997.2,N
1570896875.2,286046997.0,P
1570896895.1,286047000.4,P
1570896896.0,286047000.4,N
1570896915.8,286046999.8,N
1570896935.7,286047001.0,N
1570896955.5,286047001.0,N
1570896975.3,286047000.9,N
1570896995.2,286046999.5,N
1570897015.9,286046996.8,N
1570897035.7,286046994.9,Y
1570897055.6,286046998.0,P
1570897075.4,286046996.7,P
1570897095.3,286046996.5,P
1570897115.1,286046997.3,N
1570897116.0,286046997.3,N
1570897135.8,286046997.5,N
1570897155.7,286046995.7,Y
1570897175.5,286046997.8,P
1570897195.3,286046997.1,P
1570897215.2,286046997.3,P
1570897235.0,286046999.3,N
1570897235.9,286046999.3,N
1570897255.8,286046998.4,N
1570897275.6,286046998.0,N
1570897295.4,286046997.7,N
1570897315.3,286046997.4,Y
1570897335.1,286046999.1,P
1570897355.8,286046999.2,N
1570897375.7,286046997.0,P
1570897395.5,286046996.1,Y
1570897415.4,286046998.8,P
1570897435.2,286046999.9,N
1570897455.0,286046998.5,N
1570897455.9,286046998.5,N
1570897475.8,286046999.2,N
1570897495.6,286046996.9,Y
1570897515.5,286046999.0,P
1570897535.3,286046998.4,P
1570897555.1,286046998.8,P
1570897575.9,286046998.7,Y
1570897595.7,286047000.1,P
1570897615.5,286047002.5,P
1570897635.4,286047002.8,N
1570897655.2,286046999.7,N
1570897675.1,286047000.5,N
1570897676.0,286047000.5,N
1570897695.8,286047001.2,N
1570897715.6,286046998.4,N
1570897735.5,286047000.1,N
1570897755.3,286046998.7,N
1570897775.1,286047000.8,N
1570897795.9,286047000.9,N
1570897815.7,286046999.8,N
1570897835.6,286047002.8,N
1570897855.4,286047002.2,N
1570897875.2,286047002.8,N
1570897895.1,286047002.2,N
1570897896.0,286047002.2,N
1570897915.8,286046999.8,N
1570897935.6,286046998.4,N
1570897955.5,286046999.1,N
1570897975.3,286046999.5,N
1570897995.2,286046998.8,N
1570898015.9,286046999.5,N
1570898035.7,286047001.0,N
1570898055.6,286047000.6,N
1570898075.4,286046999.3,N
1570898095.2,286046997.0,N
1570898115.1,286047001.2,N
1570898116.0,286047001.2,N
1570898135.8,286047001.2,N
1570898155.7,286046998.1,N
1570898175.5,286046999.9,N
1570898195.3,286046999.1,N
1570898215.2,286047000.3,N
1570898235.0,286047000.7,N
1570898235.9,286047000.7,N
1570898255.7,286047002.7,N
1570898275.6,286047000.6,N
1570898295.4,286046998.3,N
1570898315.3,286047000.8,N
1570898335.1,286046999.3,N
1570898336.0,286046999.3,N
1570898355.8,286046998.8,N
1570898375.7,286046999.3,N
1570898395.5,286046999.5,N
1570898415.4,286046998.4,N
1570898435.2,286047000.3,N
1570898455.0,286047002.7,N
1570898455.9,286047002.7,N
1570898475.8,286047001.8,N
1570898495.6,286047002.4,N
1570898515.4,286047001.8,N
1570898535.3,286047003.6,N
1570898555.1,286047004.2,N
1570898575.9,286047005.3,Y
1570898595.7,286047005.1,P
1570898615.5,286047005.0,N
1570898635.4,286047009.1,P
1570898655.2,286047006.1,N
1570898675.0,286047007.3,N
1570898676.0,286047007.3,N
1570898695.8,286047006.1,N
1570898715.6,286047010.4,Y
1570898735.5,286047005.6,P
1570898755.3,286047007.9,P
1570898775.1,286047007.1,P
1570898795.9,286047010.3,Y
1570898815.7,286047004.1,P
1570898835.6,286047003.2,N
1570898855.4,286047005.0,P
1570898875.2,286047000.6,N
1570898895.1,286046998.3,N
1570898896.0,286046998.3,N
1570898915.8,286047002.2,N
1570898935.7,286047000.2,N
1570898955.5,286046998.6,N
1570898975.3,286046998.4,N
1570898995.2,286047001.9,N
1570899015.0,286047004.3,N
1570899015.9,286047004.3,N
1570899035.8,286046999.7,N
1570899055.6,286047001.7,N
1570899075.4,286047004.1,N
1570899095.3,286047002.0,N
1570899115.1,286047002.9,N
1570899135.8,286046998.9,N
1570899155.7,286046997.7,N
1570899175.5,286046998.2,N
1570899195.4,286047001.1,N
1570899215.2,286046996.9,N
1570899235.0,286046999.6,N
1570899235.9,286046999.6,N
1570899255.8,286046999.0,N
1570899275.6,286046998.4,N
1570899295.5,286047000.3,N
1570899315.3,286046998.4,N
1570899335.1,286047000.3,N
1570899355.9,286047001.5,N
1570899375.7,286046998.1,N
1570899395.5,286046999.6,N
1570899415.4,286046999.6,N
1570899435.2,286046998.1,N
1570899455.1,286046998.3,N
1570899456.0,286046998.3,N
1570899475.8,286046995.4,N
1570899495.6,286046997.4,N
1570899515.5,286046995.1,N
1570899535.3,286046997.1,N
1570899555.1,286046995.9,N
1570899575.9,286046994.0,N
1570899595.7,286046997.1,N
